DW0354 Weather Reports


time (UTC)temp
C
wind
direction
speed
KPH
gust
KPH
rain 1hr
cm
rain 24hr
cm
rain mn
cm
humidity
%
barometer
mb
20260507001516 18 329 6.4 14.5 0.00 0.00 0.00 77 1012.1
20260507000018 18 347 8.0 14.5 0.00 0.00 0.00 76 1012.3
20260506234503 19 325 9.7 16.1 0.00 0.00 0.00 75 1011.9
20260506233013 20 335 9.7 16.1 0.00 0.00 0.00 72 1011.7
20260506231514 21 293 6.4 14.5 0.00 0.00 0.00 71 1011.7
20260506230025 21 23 4.8 16.1 0.00 0.00 0.00 72 1011.5
20260506224521 21 13 8.0 17.7 0.00 0.00 0.00 71 1011.4
20260506223006 21 337 9.7 17.7 0.00 0.00 0.00 70 1011.4
20260506221509 22 334 14.5 19.3 0.00 0.00 0.00 69 1011.0
20260506220017 24 329 9.7 17.7 0.00 0.00 0.00 65 1010.9
20260506214520 25 19 4.8 17.7 0.00 0.00 0.00 65 1010.8
20260506213007 25 360 4.8 17.7 0.00 0.00 0.00 69 1010.8
20260506211508 26 41 8.0 17.7 0.00 0.00 0.00 66 1010.7
20260506210015 25 26 6.4 16.1 0.00 0.00 0.00 67 1010.8
20260506204519 25 333 6.4 16.1 0.00 0.00 0.00 70 1010.9
20260506203023 23 71 11.3 22.5 0.00 0.00 0.00 74 1011.0
20260506201522 24 313 9.7 19.3 0.00 0.00 0.00 71 1010.9
20260506200011 26 344 9.7 24.1 0.00 0.00 0.00 66 1010.8
20260506194515 27 43 0.0 4.8 0.00 0.00 0.00 66 1010.7
20260506193025 28 22 3.2 11.3 0.00 0.00 0.00 65 1010.6
20260506191524 29 61 1.6 12.9 0.00 0.00 0.00 63 1010.6
20260506190012 29 157 0.0 14.5 0.00 0.00 0.00 68 1010.7
20260506184520 28 110 3.2 9.7 0.00 0.00 0.00 68 1010.9
20260506183018 28 190 3.2 11.3 0.00 0.00 0.00 69 1011.2
20260506181522 27 133 1.6 11.3 0.00 0.00 0.00 72 1011.3
20260506180031 27 29 4.8 11.3 0.00 0.00 0.00 72 1011.5
20260506174523 26 27 6.4 14.5 0.00 0.00 0.00 74 1011.6
20260506173021 25 81 4.8 16.1 0.00 0.00 0.00 75 1011.7
20260506171534 23 45 4.8 12.9 0.00 0.00 0.00 79 1011.6
20260506170025 23 338 4.8 12.9 0.00 0.00 0.00 76 1011.8
20260506164514 25 78 6.4 11.3 0.00 0.00 0.00 81 1011.8
20260506163014 25 25 3.2 9.7 0.00 0.00 0.00 80 1011.6
20260506161521 25 30 0.0 6.4 0.00 0.00 0.00 80 1011.7
20260506160023 25 61 3.2 9.7 0.00 0.00 0.00 81 1011.5
20260506154529 25 43 4.8 11.3 0.00 0.00 0.00 81 1011.5
20260506153016 25 5 3.2 4.8 0.00 0.00 0.00 84 1011.3
20260506151524 24 92 1.6 6.4 0.00 0.00 0.00 85 1011.0
20260506150021 23 114 1.6 8.0 0.00 0.00 0.00 87 1010.9
20260506144525 23 110 3.2 9.7 0.00 0.00 0.00 89 1010.6
20260506141520 23 97 0.0 1.6 0.00 0.00 0.00 90 1010.9
20260506140026 23 98 0.0 3.2 0.00 0.00 0.00 91 1010.5
20260506134523 22 117 3.2 9.7 0.00 0.00 0.00 91 1009.8
20260506133030 22 88 1.6 6.4 0.00 0.00 0.00 91 1009.5
20260506131526 22 105 0.0 6.4 0.00 0.00 0.00 91 1009.4
20260506130019 22 126 0.0 3.2 0.00 0.00 0.00 92 1009.2
20260506124523 22 113 0.0 11.3 0.00 0.00 0.00 92 1009.0
20260506123026 22 108 1.6 6.4 0.00 0.00 0.00 92 1009.0
20260506121527 22 87 1.6 4.8 0.00 0.00 0.00 91 1009.0
20260506120020 22 104 0.0 0.0 0.00 0.00 0.00 91 1009.0
20260506114513 22 186 0.0 0.0 0.00 0.00 0.00 91 1009.0
20260506113008 22 186 0.0 0.0 0.00 0.00 0.00 91 1009.0
20260506111511 22 186 0.0 0.0 0.00 0.00 0.00 91 1009.1
20260506110020 22 186 0.0 3.2 0.00 0.00 0.00 91 1009.1
20260506104519 22 168 0.0 6.4 0.00 0.00 0.00 91 1009.1
20260506103007 22 199 0.0 8.0 0.00 0.00 0.00 91 1008.9
20260506101516 22 174 0.0 6.4 0.00 0.00 0.00 91 1008.9
20260506100022 22 190 4.8 12.9 0.00 0.00 0.00 91 1008.9
20260506094520 22 169 3.2 11.3 0.00 0.00 0.00 90 1008.9
20260506093024 22 155 1.6 11.3 0.00 0.00 0.00 90 1008.8
20260506091510 22 213 3.2 8.0 0.00 0.00 0.00 89 1008.6
20260506090018 23 184 3.2 11.3 0.00 0.00 0.00 89 1008.6
20260506084515 23 165 3.2 14.5 0.00 0.00 0.00 89 1008.4
20260506083018 23 135 4.8 16.1 0.00 0.00 0.00 89 1008.5
20260506081524 23 144 4.8 17.7 0.00 0.00 0.00 89 1008.4
20260506073017 23 138 0.0 12.9 0.00 0.00 0.00 88 1008.9
20260506071524 23 173 3.2 12.9 0.00 0.00 0.00 88 1009.0
20260506061524 23 175 3.2 12.9 0.00 0.00 0.00 87 1009.2
20260506044533 23 152 0.0 8.0 0.00 0.00 0.00 87 1009.1
20260506043014 23 131 3.2 12.9 0.00 0.00 0.00 87 1009.0
20260506041519 23 132 3.2 9.7 0.00 0.00 0.00 87 1008.9
20260506040021 23 113 1.6 6.4 0.00 0.00 0.00 87 1008.8
20260506034524 23 98 1.6 8.0 0.00 0.00 0.00 86 1008.6
20260506033033 23 103 0.0 4.8 0.00 0.00 0.00 85 1008.4
20260506031529 24 90 0.0 0.0 0.00 0.00 0.00 84 1008.2
20260506030046 24 178 0.0 4.8 0.00 0.00 0.00 83 1007.8
20260506024529 25 105 0.0 0.0 0.00 0.00 0.00 82 1007.6
20260506023027 25 98 1.6 4.8 0.00 0.00 0.00 81 1007.4
20260506021519 25 117 1.6 9.7 0.00 0.00 0.00 80 1007.3
20260506020020 25 157 3.2 8.0 0.00 0.00 0.00 79 1007.0
20260506014524 26 124 3.2 11.3 0.00 0.00 0.00 77 1006.7
20260506013025 26 115 3.2 6.4 0.00 0.00 0.00 74 1006.5
20260506011534 27 124 0.0 0.0 0.00 0.00 0.00 71 1006.5
20260506010019 27 130 0.0 0.0 0.00 0.00 0.00 70 1006.4
20260506004536 28 120 0.0 0.0 0.00 0.00 0.00 69 1006.5
20260506003032 28 159 0.0 0.0 0.00 0.00 0.00 68 1006.4